Powrót do katalogu

STARLINK-32344

AktywnyŁącznośćVLEO
NORAD 61719·PAYLOAD·🇺🇸 United States

Wystrzelony Oct 30, 2024 z Cape Canaveral Space Force Station

Loading…

Następne Przeloty (najbliższe 24 godziny)

TLE

ŚwieżeSource: CelesTrak SupGP

Epoka: Sep 14, 2026, 23:00 UTC

1 61719C 24196N   26257.95881944  .00048503  00000+0  14335-2 0  2570
2 61719  53.1589 299.7432 0001150  83.0376 119.4218 15.34357281    13

Śledź STARLINK-32344 w czasie rzeczywistym z AllMySat

Download on the App Store